{"data":{"norad_id":62882,"intl_designator":"2025-024D","name":"STARLINK-11432 [DTC]","alt_names":[],"object_type":"PAYLOAD","status":"ACTIVE","operator":null,"country":"US","launch_date":"2025-02-04","launch_site_code":"AFETR","launch_vehicle":null,"mission":null,"orbit_class":"UNKNOWN","rcs_meters":null,"size_class":null,"mass_kg":null,"dimensions":null,"purposes":["comms"],"wikipedia_slug":null,"has_3d_model":false,"image_url":null,"decayed_at":null,"tle_current":{"epoch":"2026-09-21T04:54:49.533408Z","epoch_age_seconds":107311,"freshness":"FRESH","line1":"1 62882U 25024D   26264.20473997  .00148424  00000+0  11387-2 0  9994","line2":"2 62882  43.0002  83.1735 0000627 333.9477  26.1359 15.70860784 94213","mean_motion":15.70860784,"eccentricity":6.27e-5,"inclination_deg":43.0002,"raan_deg":83.1735,"arg_perigee_deg":333.9477,"mean_anomaly_deg":26.1359,"bstar":0.0011387,"rev_number":9421,"period_min":91.669485588228,"perigee_km":356.01339995612,"apogee_km":356.85791536739,"semimajor_km":6734.5726576618,"source":"CELESTRAK","updated_at":"2026-09-22T09:00:49.702268Z"}}}